Address 0x954b341b0ab4b570a22bae5d0a2e3ccb58126542 13

 
Txn Hash Method
Block
From
To
Value [Txn Fee]
0xa5dd535ea75ba458b0a1c9261db3762d9da89c36954719bdb3ece741f79478f4Transfer1969832082024-04-03 0:34:3014 days 23 hrs ago0x954b341b0ab4b570a22bae5d0a2e3ccb58126542OUT0xce855fda24d5d40f66a8978a36e19adaa7ae2b050.971 ETH0.0000033 0.012373
0x6baee558a48a169f2a941cafd4635ef7379e833489450d267973fe3e9768d446Transfer1969816562024-04-03 0:27:5915 days 4 mins ago0x954b341b0ab4b570a22bae5d0a2e3ccb58126542OUT Wrapped Ether0 ETH0.00000545 0.011512
0x65651734a485ef6f7e3b3af86a84698c3dea5e45d7abc04c25a039546ab549daTransfer1824797122024-02-19 23:09:5158 days 1 hr ago0x954b341b0ab4b570a22bae5d0a2e3ccb58126542OUT0xe2810d705194d345887b8b2d890672e3af94c4041 ETH0.00006615 0.1
0x849e5c6392dcaa0bf37a125921841699382cb034994ac82d6870d0e7688e1e93Transfer1821705942024-02-19 0:53:2858 days 23 hrs ago0x954b341b0ab4b570a22bae5d0a2e3ccb58126542OUT Circle: USDC Token0 ETH0.0000547 0.1
0x063b75207ce6d005082127cc43b779464729db36086eda967d75ac70dd62e5b4Transfer1821701512024-02-19 0:51:2958 days 23 hrs ago0x954b341b0ab4b570a22bae5d0a2e3ccb58126542OUT Circle: USDC Token0 ETH0.00005892 0.1
0x975d3859eef7803a7429f758372a0f0023e5952eaad137edb9608442c16cbb4dTransfer1821679432024-02-19 0:41:5058 days 23 hrs ago0x954b341b0ab4b570a22bae5d0a2e3ccb58126542OUT Arbitrum: USDC Token0 ETH0.00006901 0.1
0xfe78c1c5836f45fc60cd61b3603010586e7df6f254e39f50f773469db4fde500Transfer1821656512024-02-19 0:31:3159 days ago0x954b341b0ab4b570a22bae5d0a2e3ccb58126542OUT Arbitrum: USDC Token0 ETH0.00006594 0.1
0x4ef8210a7f78760f18b4d69e58a3d367262329c32e0cd9a1ef5ca3560c154c49Transfer1765977892024-02-02 4:10:1075 days 20 hrs ago0x65247e6ebd1d6910f739253b1624e9cb52e4c47b IN 0x954b341b0ab4b570a22bae5d0a2e3ccb581265420.0189002992 ETH0.00002508 0.1
0x09305bcf9e05276ff4f3fb8671794dd0b5f6fd45a74b2c40b4bcb2411d03990bTransfer1765318662024-02-01 23:19:4676 days 1 hr ago0x954b341b0ab4b570a22bae5d0a2e3ccb58126542OUT Wrapped BTC: WBTC Token0 ETH0.00005574 0.1
0x5222b60549929d32a50b221240f3b73ff1ddf9717beaf9a39cde48aada6cdfd0Multicall1765318572024-02-01 23:19:4376 days 1 hr ago0x954b341b0ab4b570a22bae5d0a2e3ccb58126542OUT Uniswap V3: Router 20 ETH0.00012586 0.1
0x1574f618ff8d0a6eda61dfc52fc4e84e97a6228f94c7dcd6228e1878d63a1ad5Approve1765318512024-02-01 23:19:4176 days 1 hr ago0x954b341b0ab4b570a22bae5d0a2e3ccb58126542OUT Wrapped BTC: WBTC Token0 ETH0.0000557 0.1
0x99e06938fbb1379e4965eb204b1da929c0c4cd7ef24f5599ba19a2c9b1d564dbMulticall1765311552024-02-01 23:16:2076 days 1 hr ago0x954b341b0ab4b570a22bae5d0a2e3ccb58126542OUT Uniswap V3: Router 20 ETH0.00012313 0.1
0x5b5145778a30e61f22395709521bdccc19f1b2f4d20cc04f309a17ba8f1bb20eApprove1765311502024-02-01 23:16:1876 days 1 hr ago0x954b341b0ab4b570a22bae5d0a2e3ccb58126542OUT Arbitrum: USDC Token0 ETH0.00005614 0.1
0x8ea21c57e3f15a09d47851d4f9b535c54ada9425c3e68b59218846291af62f24Approve1765311422024-02-01 23:16:1676 days 1 hr ago0x954b341b0ab4b570a22bae5d0a2e3ccb58126542OUT Wrapped Ether0 ETH0.00005547 0.1
0xb5c1b4a9d8ff80c5a7d52ed0a41d6347ad858c4a107c6db0d424eb2e9f2f86d2Transfer1763070552024-02-01 6:50:4776 days 17 hrs ago0x40c17273acab59175850fbce8f3c28e37b828f9d IN 0x954b341b0ab4b570a22bae5d0a2e3ccb581265420.008911559 ETH0.00002663 0.1
0x0ceda95db9df8cb85038d51a0513d1a0eff89123fd8ffbd936956d5c01ec27b6Transfer1763056912024-02-01 6:45:0176 days 17 hrs ago0xf2cd62a59441617bb0d0b407ff7bdc93232a63fc IN 0x954b341b0ab4b570a22bae5d0a2e3ccb581265420.008911559 ETH0.00002663 0.1
0x4d886d99b870b7c7925fd9c8154a983cb3f926c0b3572ed144ad22ed1a956678Transfer1763048602024-02-01 6:41:2876 days 17 hrs ago0xb7d8071a474b6f75c70ea66ca685891b336a9b33 IN 0x954b341b0ab4b570a22bae5d0a2e3ccb581265420.0187070998 ETH0.0000306 0.1
0xbc9ea8dd6bd88b360c47b7fa3217c84895868c00ff1a8196d7afad16bc77f03aTransfer1763045192024-02-01 6:40:0276 days 17 hrs ago0x1a509a9bcd0453f1b70ed209cb5a975ba298d7ea IN 0x954b341b0ab4b570a22bae5d0a2e3ccb581265420.0137101229 ETH0.0000306 0.1
0xd2a6d0801a15eca88b39eba53c261ba9539ac6821bfa0e72a31b04368f1c81fbTransfer1763020262024-02-01 6:29:3076 days 18 hrs ago0x954b341b0ab4b570a22bae5d0a2e3ccb58126542OUT 0x759faf269d0c662b5dc78e01ef61392541d527500 ETH0.00004417 0.1
0xa85cd9cd9b764ba0e6ddd43b36db8341288fef4bd54c39dc1a3c3b8b790393abTransfer1762967172024-02-01 6:06:3876 days 18 hrs ago0x954b341b0ab4b570a22bae5d0a2e3ccb58126542OUT 0x12d95bfb070da3ce516c77480f13ca68345a61bf0 ETH0.00004611 0.1
0x75fe7e5bfbb6c915ca9f185ac7a29a54168ebbf53c003a4755227b35cd136016Transfer1762964612024-02-01 6:05:3876 days 18 hrs ago0x954b341b0ab4b570a22bae5d0a2e3ccb58126542OUT 0x759faf269d0c662b5dc78e01ef61392541d527500 ETH0.00002198 0.1
0xf49f4dac1f66e486baa6d60f32aee593db9210ef1b8f5f5ac87c52041530cde3Transfer1762960642024-02-01 6:03:5876 days 18 hrs ago0x647bfa8b0d0050dc00777d33ad20b3ce196ae50a IN 0x954b341b0ab4b570a22bae5d0a2e3ccb581265420.011 ETH0.00001462 0.1
0x647f121eb2df6a7e9eb6c6f31ebc7ee6c5df4cc5f5964b6d7e0e248ea2431847Transfer1762917682024-02-01 5:45:4976 days 18 hrs ago0x395e899b8055244abd59b9ac0ac40ae358b879a9 IN 0x954b341b0ab4b570a22bae5d0a2e3ccb581265420.847058218579631 ETH0.000026 0.1
0x1cca394880b614cc4dad5264a7b4be13cb9ad04ebc5d5b7da4b6d936d55db412Transfer1735237842024-01-24 0:31:3485 days ago0x954b341b0ab4b570a22bae5d0a2e3ccb58126542OUT 0x759faf269d0c662b5dc78e01ef61392541d527500 ETH0.00002741 0.1
0x282d8ddd0a3adb5e857060737c96665c6d94546bd7d11699210261fa37d74cafTransfer1735234862024-01-24 0:30:1985 days 1 min ago0x954b341b0ab4b570a22bae5d0a2e3ccb58126542OUT 0xedf9c715c91443405ec059202c9ac107d9d0ca100 ETH0.00002741 0.1
[ Download CSV Export 
Parent Txn Hash Block From To Value
Loading

Contract Name:
0 ETH

Compiler Version
0

Optimization Enabled:
0 ETH

Other Settings:
-NA-
Block Transaction Gas Used Reward
Age Block Fee Address BC Fee Address Voting Power Jailed Incoming
Block Uncle Number Difficulty Gas Used Reward
Loading
Make sure to use the "Vote Down" button for any spammy posts, and the "Vote Up" for interesting conversations.